Time,TemperatureF,DewpointF,PressureIn,WindDirection,WindDirectionDegrees,WindSpeedMPH,WindSpeedGustMPH,Humidity,HourlyPrecipIn,Conditions,Clouds,dailyrainin,SoftwareType,DateUTC
2013-03-30 00:04:00,42.8,26.8,30.20,North,0,0.0,1.0,53,0.00,,,0.00,Wunderground PWS Mod,2013-03-30 04:04:00,
2013-03-30 00:06:00,42.8,28.2,30.18,North,0,1.0,2.0,56,0.00,,,0.00,Wunderground PWS Mod,2013-03-30 04:06:00,
2013-03-30 00:08:00,42.8,28.2,30.18,North,0,1.0,2.0,56,0.00,,,0.00,Wunderground PWS Mod,2013-03-30 04:08:00,
2013-03-30 00:10:00,42.8,28.2,30.18,North,0,1.0,2.0,56,0.00,,,0.00,Wunderground PWS Mod,2013-03-30 04:10:00,
2013-03-30 00:12:00,42.8,28.2,30.18,North,0,1.0,2.0,56,0.00,,,0.00,Wunderground PWS Mod,2013-03-30 04:12:00,
2013-03-30 00:14:00,42.9,27.8,30.20,North,0,1.0,1.0,55,0.00,,,0.00,Wunderground PWS Mod,2013-03-30 04:14:00,
2013-03-30 00:16:00,42.9,27.8,30.20,North,0,1.0,1.0,55,0.00,,,0.00,Wunderground PWS Mod,2013-03-30 04:16:00,
2013-03-30 00:24:00,42.6,27.1,30.20,North,0,1.0,2.0,54,0.00,,,0.00,Wunderground PWS Mod,2013-03-30 04:24:00,
2013-03-30 00:34:00,43.1,28.0,30.20,North,0,0.0,2.0,55,0.00,,,0.00,Wunderground PWS Mod,2013-03-30 04:34:00,
2013-03-30 00:38:00,42.8,28.2,30.18,North,0,1.0,2.0,56,0.00,,,0.00,Wunderground PWS Mod,2013-03-30 04:38:00,
2013-03-30 00:44:00,43.4,28.3,30.20,North,0,0.0,2.0,55,0.00,,,0.00,Wunderground PWS Mod,2013-03-30 04:44:00,
2013-03-30 00:54:00,42.5,27.9,30.20,North,0,0.0,2.0,56,0.00,,,0.00,Wunderground PWS Mod,2013-03-30 04:54:00,
2013-03-30 01:04:00,42.8,28.6,30.20,North,0,0.0,3.0,57,0.00,,,0.00,Wunderground PWS Mod,2013-03-30 05:04:00,
2013-03-30 01:06:00,42.9,28.3,30.19,North,0,0.0,3.0,56,0.00,,,0.00,Wunderground PWS Mod,2013-03-30 05:06:00,
2013-03-30 01:08:00,42.9,28.3,30.19,North,0,0.0,3.0,56,0.00,,,0.00,Wunderground PWS Mod,2013-03-30 05:08:00,
2013-03-30 01:10:00,42.9,28.3,30.19,North,0,0.0,3.0,56,0.00,,,0.00,Wunderground PWS Mod,2013-03-30 05:10:00,
2013-03-30 01:12:00,42.9,28.3,30.19,North,0,0.0,3.0,56,0.00,,,0.00,Wunderground PWS Mod,2013-03-30 05:12:00,
2013-03-30 01:14:00,43.0,27.5,30.20,North,0,0.0,3.0,54,0.00,,,0.00,Wunderground PWS Mod,2013-03-30 05:14:00,
2013-03-30 01:24:00,43.3,27.3,30.20,North,0,0.0,3.0,53,0.00,,,0.00,Wunderground PWS Mod,2013-03-30 05:24:00,
2013-03-30 01:34:00,43.0,28.4,30.20,North,0,1.0,3.0,56,0.00,,,0.00,Wunderground PWS Mod,2013-03-30 05:34:00,
2013-03-30 01:36:00,43.1,28.0,30.19,North,0,0.0,1.0,55,0.00,,,0.00,Wunderground PWS Mod,2013-03-30 05:36:00,
2013-03-30 01:44:00,42.8,27.7,30.20,North,0,1.0,3.0,55,0.00,,,0.00,Wunderground PWS Mod,2013-03-30 05:44:00,
2013-03-30 01:54:00,43.2,27.2,30.20,North,0,1.0,3.0,53,0.00,,,0.00,Wunderground PWS Mod,2013-03-30 05:54:00,
2013-03-30 02:04:00,43.4,27.8,30.20,North,0,2.0,2.0,54,0.00,,,0.00,Wunderground PWS Mod,2013-03-30 06:04:00,
2013-03-30 02:06:00,43.1,26.7,30.18,North,0,0.0,2.0,52,0.00,,,0.00,Wunderground PWS Mod,2013-03-30 06:06:00,
2013-03-30 02:14:00,43.9,28.3,30.19,North,0,1.0,2.0,54,0.00,,,0.00,Wunderground PWS Mod,2013-03-30 06:14:00,
2013-03-30 02:24:00,42.5,28.3,30.20,North,0,0.0,2.0,57,0.00,,,0.00,Wunderground PWS Mod,2013-03-30 06:24:00,
2013-03-30 02:34:00,42.5,27.5,30.19,North,0,1.0,2.0,55,0.00,,,0.00,Wunderground PWS Mod,2013-03-30 06:34:00,
2013-03-30 02:36:00,43.2,28.1,30.18,North,0,1.0,2.0,55,0.00,,,0.00,Wunderground PWS Mod,2013-03-30 06:36:00,
2013-03-30 02:44:00,42.6,28.0,30.19,North,0,0.0,2.0,56,0.00,,,0.00,Wunderground PWS Mod,2013-03-30 06:44:00,
2013-03-30 02:54:00,42.6,27.5,30.19,North,0,0.0,2.0,55,0.00,,,0.00,Wunderground PWS Mod,2013-03-30 06:54:00,
2013-03-30 03:04:00,42.4,28.2,30.19,North,0,1.0,2.0,57,0.00,,,0.00,Wunderground PWS Mod,2013-03-30 07:04:00,
2013-03-30 03:06:00,42.6,28.0,30.18,North,0,0.0,2.0,56,0.00,,,0.00,Wunderground PWS Mod,2013-03-30 07:06:00,
2013-03-30 03:08:00,42.6,28.0,30.18,North,0,0.0,2.0,56,0.00,,,0.00,Wunderground PWS Mod,2013-03-30 07:08:00,
2013-03-30 03:10:00,42.6,28.0,30.18,North,0,0.0,2.0,56,0.00,,,0.00,Wunderground PWS Mod,2013-03-30 07:10:00,
2013-03-30 03:12:00,42.6,28.0,30.18,North,0,0.0,2.0,56,0.00,,,0.00,Wunderground PWS Mod,2013-03-30 07:12:00,
2013-03-30 03:14:00,42.3,27.7,30.18,North,0,0.0,2.0,56,0.00,,,0.00,Wunderground PWS Mod,2013-03-30 07:14:00,
2013-03-30 03:24:00,40.9,27.7,30.18,North,0,0.0,2.0,59,0.00,,,0.00,Wunderground PWS Mod,2013-03-30 07:24:00,
2013-03-30 03:34:00,39.5,27.2,30.19,North,0,0.0,2.0,61,0.00,,,0.00,Wunderground PWS Mod,2013-03-30 07:34:00,
2013-03-30 03:40:00,41.7,28.8,30.17,North,0,0.0,2.0,60,0.00,,,0.00,Wunderground PWS Mod,2013-03-30 07:40:00,
2013-03-30 03:42:00,41.7,28.8,30.17,North,0,0.0,2.0,60,0.00,,,0.00,Wunderground PWS Mod,2013-03-30 07:42:00,
2013-03-30 03:44:00,38.8,27.3,30.19,North,0,0.0,2.0,63,0.00,,,0.00,Wunderground PWS Mod,2013-03-30 07:44:00,
2013-03-30 03:54:00,38.6,27.1,30.19,North,0,0.0,2.0,63,0.00,,,0.00,Wunderground PWS Mod,2013-03-30 07:54:00,
2013-03-30 04:04:00,37.8,26.3,30.19,North,0,0.0,2.0,63,0.00,,,0.00,Wunderground PWS Mod,2013-03-30 08:04:00,
2013-03-30 04:06:00,38.9,27.4,30.18,North,0,0.0,2.0,63,0.00,,,0.00,Wunderground PWS Mod,2013-03-30 08:06:00,
2013-03-30 04:08:00,38.9,27.4,30.18,North,0,0.0,2.0,63,0.00,,,0.00,Wunderground PWS Mod,2013-03-30 08:08:00,
2013-03-30 04:10:00,38.9,27.4,30.18,North,0,0.0,2.0,63,0.00,,,0.00,Wunderground PWS Mod,2013-03-30 08:10:00,
2013-03-30 04:12:00,38.9,27.4,30.18,North,0,0.0,2.0,63,0.00,,,0.00,Wunderground PWS Mod,2013-03-30 08:12:00,
2013-03-30 04:14:00,37.2,26.5,30.19,North,0,0.0,2.0,65,0.00,,,0.00,Wunderground PWS Mod,2013-03-30 08:14:00,
2013-03-30 04:24:00,37.1,26.8,30.19,North,0,0.0,2.0,66,0.00,,,0.00,Wunderground PWS Mod,2013-03-30 08:24:00,
2013-03-30 04:34:00,37.2,26.5,30.19,North,0,0.0,2.0,65,0.00,,,0.00,Wunderground PWS Mod,2013-03-30 08:34:00,
2013-03-30 04:36:00,37.4,27.1,30.18,North,0,0.0,2.0,66,0.00,,,0.00,Wunderground PWS Mod,2013-03-30 08:36:00,
2013-03-30 04:44:00,36.3,26.4,30.19,North,0,0.0,2.0,67,0.00,,,0.00,Wunderground PWS Mod,2013-03-30 08:44:00,
2013-03-30 04:54:00,35.7,26.2,30.19,North,0,1.0,2.0,68,0.00,,,0.00,Wunderground PWS Mod,2013-03-30 08:54:00,
2013-03-30 05:04:00,35.4,26.6,30.19,North,0,0.0,2.0,70,0.00,,,0.00,Wunderground PWS Mod,2013-03-30 09:04:00,
2013-03-30 05:06:00,36.3,27.1,30.18,North,0,0.0,2.0,69,0.00,,,0.00,Wunderground PWS Mod,2013-03-30 09:06:00,
2013-03-30 05:08:00,36.3,27.1,30.18,North,0,0.0,2.0,69,0.00,,,0.00,Wunderground PWS Mod,2013-03-30 09:08:00,
2013-03-30 05:10:00,36.3,27.1,30.18,North,0,0.0,2.0,69,0.00,,,0.00,Wunderground PWS Mod,2013-03-30 09:10:00,
2013-03-30 05:12:00,36.3,27.1,30.18,North,0,0.0,2.0,69,0.00,,,0.00,Wunderground PWS Mod,2013-03-30 09:12:00,
2013-03-30 05:14:00,36.4,27.2,30.19,North,0,0.0,2.0,69,0.00,,,0.00,Wunderground PWS Mod,2013-03-30 09:14:00,
2013-03-30 05:24:00,36.7,27.1,30.19,North,0,0.0,2.0,68,0.00,,,0.00,Wunderground PWS Mod,2013-03-30 09:24:00,
2013-03-30 05:34:00,36.8,27.2,30.19,North,0,0.0,2.0,68,0.00,,,0.00,Wunderground PWS Mod,2013-03-30 09:34:00,
2013-03-30 05:40:00,36.3,26.7,30.18,N/A,-737280,0.0,1.0,68,0.00,,,0.00,Wunderground PWS Mod,2013-03-30 09:40:00,
2013-03-30 05:42:00,36.3,26.7,30.18,N/A,-737280,0.0,1.0,68,0.00,,,0.00,Wunderground PWS Mod,2013-03-30 09:42:00,
2013-03-30 05:44:00,36.9,27.3,30.19,North,0,0.0,2.0,68,0.00,,,0.00,Wunderground PWS Mod,2013-03-30 09:44:00,
2013-03-30 05:54:00,37.0,27.1,30.20,North,0,0.0,2.0,67,0.00,,,0.00,Wunderground PWS Mod,2013-03-30 09:54:00,
2013-03-30 05:56:00,37.0,27.1,30.19,North,0,0.0,2.0,67,0.00,,,0.00,Wunderground PWS Mod,2013-03-30 09:56:00,
2013-03-30 06:04:00,37.1,27.9,30.19,North,0,0.0,2.0,69,0.00,,,0.00,Wunderground PWS Mod,2013-03-30 10:04:00,
2013-03-30 06:06:00,36.9,27.3,30.18,North,0,0.0,2.0,68,0.00,,,0.00,Wunderground PWS Mod,2013-03-30 10:06:00,
2013-03-30 06:08:00,36.9,27.3,30.18,North,0,0.0,2.0,68,0.00,,,0.00,Wunderground PWS Mod,2013-03-30 10:08:00,
2013-03-30 06:10:00,36.9,27.3,30.18,North,0,0.0,2.0,68,0.00,,,0.00,Wunderground PWS Mod,2013-03-30 10:10:00,
2013-03-30 06:12:00,36.9,27.3,30.18,North,0,0.0,2.0,68,0.00,,,0.00,Wunderground PWS Mod,2013-03-30 10:12:00,
2013-03-30 06:14:00,36.8,27.2,30.20,North,0,0.0,2.0,68,0.00,,,0.00,Wunderground PWS Mod,2013-03-30 10:14:00,
2013-03-30 06:24:00,37.0,27.4,30.20,North,0,0.0,2.0,68,0.00,,,0.00,Wunderground PWS Mod,2013-03-30 10:24:00,
2013-03-30 06:34:00,37.6,28.0,30.20,North,0,0.0,3.0,68,0.00,,,0.00,Wunderground PWS Mod,2013-03-30 10:34:00,
2013-03-30 06:40:00,37.0,28.1,30.19,North,0,0.0,3.0,70,0.00,,,0.00,Wunderground PWS Mod,2013-03-30 10:40:00,
2013-03-30 06:42:00,37.0,28.1,30.19,North,0,0.0,3.0,70,0.00,,,0.00,Wunderground PWS Mod,2013-03-30 10:42:00,
2013-03-30 06:44:00,37.5,27.5,30.20,North,0,0.0,3.0,67,0.00,,,0.00,Wunderground PWS Mod,2013-03-30 10:44:00,
2013-03-30 06:54:00,36.8,27.2,30.20,North,0,1.0,3.0,68,0.00,,,0.00,Wunderground PWS Mod,2013-03-30 10:54:00,
2013-03-30 07:04:00,36.6,27.4,30.21,North,0,0.0,3.0,69,0.00,,,0.00,Wunderground PWS Mod,2013-03-30 11:04:00,
2013-03-30 07:10:00,37.2,28.0,30.19,North,0,0.0,2.0,69,0.00,,,0.00,Wunderground PWS Mod,2013-03-30 11:10:00,
2013-03-30 07:12:00,37.2,28.0,30.19,North,0,0.0,2.0,69,0.00,,,0.00,Wunderground PWS Mod,2013-03-30 11:12:00,
2013-03-30 07:14:00,36.9,27.7,30.21,North,0,1.0,3.0,69,0.00,,,0.00,Wunderground PWS Mod,2013-03-30 11:14:00,
2013-03-30 07:24:00,36.6,27.7,30.22,North,0,2.0,4.0,70,0.00,,,0.00,Wunderground PWS Mod,2013-03-30 11:24:00,
2013-03-30 07:34:00,36.9,28.4,30.22,North,0,0.0,5.0,71,0.00,,,0.00,Wunderground PWS Mod,2013-03-30 11:34:00,
2013-03-30 07:36:00,36.7,27.8,30.21,North,0,1.0,5.0,70,0.00,,,0.00,Wunderground PWS Mod,2013-03-30 11:36:00,
2013-03-30 07:44:00,37.7,28.8,30.22,North,0,2.0,5.0,70,0.00,,,0.00,Wunderground PWS Mod,2013-03-30 11:44:00,
2013-03-30 07:54:00,38.0,28.4,30.22,North,0,1.0,5.0,68,0.00,,,0.00,Wunderground PWS Mod,2013-03-30 11:54:00,
2013-03-30 08:04:00,39.1,29.1,30.23,North,0,0.0,5.0,67,0.00,,,0.00,Wunderground PWS Mod,2013-03-30 12:04:00,
2013-03-30 08:06:00,37.6,28.0,30.21,North,0,1.0,5.0,68,0.00,,,0.00,Wunderground PWS Mod,2013-03-30 12:06:00,
2013-03-30 08:08:00,37.6,28.0,30.21,North,0,1.0,5.0,68,0.00,,,0.00,Wunderground PWS Mod,2013-03-30 12:08:00,
2013-03-30 08:10:00,37.6,28.0,30.21,North,0,1.0,5.0,68,0.00,,,0.00,Wunderground PWS Mod,2013-03-30 12:10:00,
2013-03-30 08:12:00,37.6,28.0,30.21,North,0,1.0,5.0,68,0.00,,,0.00,Wunderground PWS Mod,2013-03-30 12:12:00,
2013-03-30 08:14:00,39.8,28.6,30.22,North,0,2.0,5.0,64,0.00,,,0.00,Wunderground PWS Mod,2013-03-30 12:14:00,
2013-03-30 08:24:00,40.7,29.5,30.23,North,0,3.0,5.0,64,0.00,,,0.00,Wunderground PWS Mod,2013-03-30 12:24:00,
2013-03-30 08:34:00,41.4,29.7,30.23,North,0,1.0,5.0,63,0.00,,,0.00,Wunderground PWS Mod,2013-03-30 12:34:00,
2013-03-30 08:38:00,40.1,29.3,30.22,North,0,1.0,4.0,65,0.00,,,0.00,Wunderground PWS Mod,2013-03-30 12:38:00,
2013-03-30 08:44:00,41.9,29.4,30.23,NNW,327,2.0,5.0,61,0.00,,,0.00,Wunderground PWS Mod,2013-03-30 12:44:00,
2013-03-30 08:54:00,43.3,29.9,30.23,NNW,330,0.0,5.0,59,0.00,,,0.00,Wunderground PWS Mod,2013-03-30 12:54:00,
2013-03-30 09:04:00,44.4,30.1,30.23,SSE,158,1.0,4.0,57,0.00,,,0.00,Wunderground PWS Mod,2013-03-30 13:04:00,
2013-03-30 09:06:00,42.3,28.6,30.22,NNW,338,1.0,4.0,58,0.00,,,0.00,Wunderground PWS Mod,2013-03-30 13:06:00,
2013-03-30 09:08:00,42.3,28.6,30.22,NNW,338,1.0,4.0,58,0.00,,,0.00,Wunderground PWS Mod,2013-03-30 13:08:00,
2013-03-30 09:10:00,42.3,28.6,30.22,NNW,338,1.0,4.0,58,0.00,,,0.00,Wunderground PWS Mod,2013-03-30 13:10:00,
2013-03-30 09:12:00,42.3,28.6,30.22,NNW,338,1.0,4.0,58,0.00,,,0.00,Wunderground PWS Mod,2013-03-30 13:12:00,
2013-03-30 09:14:00,47.1,30.4,30.23,SSE,151,1.0,4.0,52,0.00,,,0.00,Wunderground PWS Mod,2013-03-30 13:14:00,
2013-03-30 09:24:00,47.6,30.3,30.23,SE,146,1.0,4.0,51,0.00,,,0.00,Wunderground PWS Mod,2013-03-30 13:24:00,
2013-03-30 09:34:00,48.2,29.4,30.23,NNE,25,2.0,4.0,48,0.00,,,0.00,Wunderground PWS Mod,2013-03-30 13:34:00,
2013-03-30 09:38:00,46.7,29.0,30.22,SE,135,1.0,4.0,50,0.00,,,0.00,Wunderground PWS Mod,2013-03-30 13:38:00,
2013-03-30 09:44:00,48.6,29.3,30.23,NNE,27,2.0,4.0,47,0.00,,,0.00,Wunderground PWS Mod,2013-03-30 13:44:00,
2013-03-30 09:54:00,49.2,28.7,30.23,North,1,0.0,4.0,45,0.00,,,0.00,Wunderground PWS Mod,2013-03-30 13:54:00,
2013-03-30 10:04:00,50.0,29.5,30.23,NE,49,5.0,6.0,45,0.00,,,0.00,Wunderground PWS Mod,2013-03-30 14:04:00,
2013-03-30 10:06:00,48.9,27.9,30.22,NNE,23,3.0,6.0,44,0.00,,,0.00,Wunderground PWS Mod,2013-03-30 14:06:00,
2013-03-30 10:08:00,48.9,27.9,30.22,NNE,23,3.0,6.0,44,0.00,,,0.00,Wunderground PWS Mod,2013-03-30 14:08:00,
2013-03-30 10:10:00,48.9,27.9,30.22,NNE,23,3.0,6.0,44,0.00,,,0.00,Wunderground PWS Mod,2013-03-30 14:10:00,
2013-03-30 10:12:00,48.9,27.9,30.22,NNE,23,3.0,6.0,44,0.00,,,0.00,Wunderground PWS Mod,2013-03-30 14:12:00,
2013-03-30 10:14:00,50.3,27.5,30.23,NE,39,2.0,6.0,41,0.00,,,0.00,Wunderground PWS Mod,2013-03-30 14:14:00,
2013-03-30 10:24:00,51.3,28.4,30.23,East,94,2.0,6.0,41,0.00,,,0.00,Wunderground PWS Mod,2013-03-30 14:24:00,
2013-03-30 10:34:00,51.6,27.4,30.23,SE,132,2.0,6.0,39,0.00,,,0.00,Wunderground PWS Mod,2013-03-30 14:34:00,
2013-03-30 10:38:00,50.8,26.1,30.22,NE,45,2.0,6.0,38,0.00,,,0.00,Wunderground PWS Mod,2013-03-30 14:38:00,
2013-03-30 10:44:00,51.9,27.1,30.22,NNW,342,3.0,6.0,38,0.00,,,0.00,Wunderground PWS Mod,2013-03-30 14:44:00,
2013-03-30 10:54:00,52.1,26.6,30.22,NNE,27,1.0,6.0,37,0.00,,,0.00,Wunderground PWS Mod,2013-03-30 14:54:00,
2013-03-30 11:04:00,52.4,27.5,30.22,NNE,28,4.0,8.0,38,0.00,,,0.00,Wunderground PWS Mod,2013-03-30 15:04:00,
2013-03-30 11:06:00,52.0,26.5,30.21,North,0,3.0,8.0,37,0.00,,,0.00,Wunderground PWS Mod,2013-03-30 15:06:00,
2013-03-30 11:08:00,52.0,26.5,30.21,North,0,3.0,8.0,37,0.00,,,0.00,Wunderground PWS Mod,2013-03-30 15:08:00,
2013-03-30 11:10:00,52.0,26.5,30.21,North,0,3.0,8.0,37,0.00,,,0.00,Wunderground PWS Mod,2013-03-30 15:10:00,
2013-03-30 11:12:00,52.0,26.5,30.21,North,0,3.0,8.0,37,0.00,,,0.00,Wunderground PWS Mod,2013-03-30 15:12:00,
2013-03-30 11:14:00,52.8,26.6,30.22,ENE,65,4.0,8.0,36,0.00,,,0.00,Wunderground PWS Mod,2013-03-30 15:14:00,
2013-03-30 11:24:00,53.5,25.8,30.21,East,96,0.0,8.0,34,0.00,,,0.00,Wunderground PWS Mod,2013-03-30 15:24:00,
2013-03-30 11:34:00,54.4,26.6,30.21,NNE,33,2.0,8.0,34,0.00,,,0.00,Wunderground PWS Mod,2013-03-30 15:34:00,
2013-03-30 11:36:00,53.2,24.8,30.20,East,90,2.0,7.0,33,0.00,,,0.00,Wunderground PWS Mod,2013-03-30 15:36:00,
2013-03-30 11:44:00,54.3,25.8,30.21,NW,315,3.0,8.0,33,0.00,,,0.00,Wunderground PWS Mod,2013-03-30 15:44:00,
2013-03-30 11:54:00,54.5,23.7,30.21,WNW,303,6.0,8.0,30,0.00,,,0.00,Wunderground PWS Mod,2013-03-30 15:54:00,
2013-03-30 12:04:00,54.3,22.7,30.20,WSW,246,2.0,12.0,29,0.00,,,0.00,Wunderground PWS Mod,2013-03-30 16:04:00,
2013-03-30 12:06:00,54.4,24.4,30.19,NW,315,5.0,12.0,31,0.00,,,0.00,Wunderground PWS Mod,2013-03-30 16:06:00,
2013-03-30 12:08:00,54.4,24.4,30.19,NW,315,5.0,12.0,31,0.00,,,0.00,Wunderground PWS Mod,2013-03-30 16:08:00,
2013-03-30 12:10:00,54.4,24.4,30.19,NW,315,5.0,12.0,31,0.00,,,0.00,Wunderground PWS Mod,2013-03-30 16:10:00,
2013-03-30 12:12:00,54.4,24.4,30.19,NW,315,5.0,12.0,31,0.00,,,0.00,Wunderground PWS Mod,2013-03-30 16:12:00,
2013-03-30 12:14:00,55.1,23.4,30.19,NW,318,4.0,12.0,29,0.00,,,0.00,Wunderground PWS Mod,2013-03-30 16:14:00,
2013-03-30 12:24:00,55.1,23.4,30.19,NNW,327,9.0,12.0,29,0.00,,,0.00,Wunderground PWS Mod,2013-03-30 16:24:00,
2013-03-30 12:34:00,54.2,21.8,30.19,NNE,16,2.0,12.0,28,0.00,,,0.00,Wunderground PWS Mod,2013-03-30 16:34:00,
2013-03-30 12:38:00,54.8,22.3,30.18,NNW,338,5.0,12.0,28,0.00,,,0.00,Wunderground PWS Mod,2013-03-30 16:38:00,
2013-03-30 12:44:00,54.6,22.1,30.18,WNW,285,10.0,12.0,28,0.00,,,0.00,Wunderground PWS Mod,2013-03-30 16:44:00,
2013-03-30 12:54:00,55.5,22.0,30.19,NNW,327,6.0,12.0,27,0.00,,,0.00,Wunderground PWS Mod,2013-03-30 16:54:00,
2013-03-30 13:04:00,55.0,21.6,30.18,NW,311,4.0,15.0,27,0.00,,,0.00,Wunderground PWS Mod,2013-03-30 17:04:00,
2013-03-30 13:06:00,54.8,21.4,30.18,WNW,293,5.0,15.0,27,0.00,,,0.00,Wunderground PWS Mod,2013-03-30 17:06:00,
2013-03-30 13:08:00,54.8,21.4,30.18,WNW,293,5.0,15.0,27,0.00,,,0.00,Wunderground PWS Mod,2013-03-30 17:08:00,
2013-03-30 13:10:00,54.8,21.4,30.18,WNW,293,5.0,15.0,27,0.00,,,0.00,Wunderground PWS Mod,2013-03-30 17:10:00,
2013-03-30 13:12:00,54.8,21.4,30.18,WNW,293,5.0,15.0,27,0.00,,,0.00,Wunderground PWS Mod,2013-03-30 17:12:00,
2013-03-30 13:14:00,55.8,20.5,30.17,WNW,298,5.0,15.0,25,0.00,,,0.00,Wunderground PWS Mod,2013-03-30 17:14:00,
2013-03-30 13:24:00,56.3,22.7,30.17,SW,229,3.0,15.0,27,0.00,,,0.00,Wunderground PWS Mod,2013-03-30 17:24:00,
2013-03-30 13:34:00,55.6,22.1,30.17,NNW,345,4.0,15.0,27,0.00,,,0.00,Wunderground PWS Mod,2013-03-30 17:34:00,
2013-03-30 13:36:00,56.0,21.6,30.16,NW,315,4.0,13.0,26,0.00,,,0.00,Wunderground PWS Mod,2013-03-30 17:36:00,
2013-03-30 13:44:00,55.2,21.8,30.17,NNE,21,1.0,15.0,27,0.00,,,0.00,Wunderground PWS Mod,2013-03-30 17:44:00,
2013-03-30 13:54:00,55.9,23.2,30.17,NNE,23,2.0,15.0,28,0.00,,,0.00,Wunderground PWS Mod,2013-03-30 17:54:00,
2013-03-30 14:04:00,55.9,24.1,30.16,SE,134,7.0,8.0,29,0.00,,,0.00,Wunderground PWS Mod,2013-03-30 18:04:00,
2013-03-30 14:06:00,55.6,23.8,30.15,NNE,23,3.0,8.0,29,0.00,,,0.00,Wunderground PWS Mod,2013-03-30 18:06:00,
2013-03-30 14:14:00,56.9,24.9,30.16,North,0,3.0,8.0,29,0.00,,,0.00,Wunderground PWS Mod,2013-03-30 18:14:00,
2013-03-30 14:24:00,58.0,24.2,30.15,South,171,2.0,8.0,27,0.00,,,0.00,Wunderground PWS Mod,2013-03-30 18:24:00,
2013-03-30 14:34:00,57.3,24.4,30.15,SE,146,1.0,9.0,28,0.00,,,0.00,Wunderground PWS Mod,2013-03-30 18:34:00,
2013-03-30 14:40:00,57.1,23.4,30.14,ESE,113,3.0,9.0,27,0.00,,,0.00,Wunderground PWS Mod,2013-03-30 18:40:00,
2013-03-30 14:42:00,57.1,23.4,30.14,ESE,113,3.0,9.0,27,0.00,,,0.00,Wunderground PWS Mod,2013-03-30 18:42:00,
2013-03-30 14:44:00,57.6,22.9,30.15,West,264,5.0,9.0,26,0.00,,,0.00,Wunderground PWS Mod,2013-03-30 18:44:00,
2013-03-30 14:54:00,57.3,21.7,30.14,WNW,294,5.0,9.0,25,0.00,,,0.00,Wunderground PWS Mod,2013-03-30 18:54:00,
2013-03-30 15:04:00,57.5,23.7,30.14,North,6,1.0,11.0,27,0.00,,,0.00,Wunderground PWS Mod,2013-03-30 19:04:00,
2013-03-30 15:06:00,57.4,22.8,30.13,West,270,4.0,11.0,26,0.00,,,0.00,Wunderground PWS Mod,2013-03-30 19:06:00,
2013-03-30 15:08:00,57.4,22.8,30.13,West,270,4.0,11.0,26,0.00,,,0.00,Wunderground PWS Mod,2013-03-30 19:08:00,
2013-03-30 15:10:00,57.4,22.8,30.13,West,270,4.0,11.0,26,0.00,,,0.00,Wunderground PWS Mod,2013-03-30 19:10:00,
2013-03-30 15:12:00,57.4,22.8,30.13,West,270,4.0,11.0,26,0.00,,,0.00,Wunderground PWS Mod,2013-03-30 19:12:00,
2013-03-30 15:14:00,57.7,23.0,30.14,NW,317,4.0,11.0,26,0.00,,,0.00,Wunderground PWS Mod,2013-03-30 19:14:00,
2013-03-30 15:24:00,57.6,22.0,30.13,North,0,2.0,11.0,25,0.00,,,0.00,Wunderground PWS Mod,2013-03-30 19:24:00,
2013-03-30 15:34:00,58.3,24.4,30.13,NNE,16,5.0,11.0,27,0.00,,,0.00,Wunderground PWS Mod,2013-03-30 19:34:00,
2013-03-30 15:36:00,57.7,23.9,30.11,North,0,4.0,9.0,27,0.00,,,0.00,Wunderground PWS Mod,2013-03-30 19:36:00,
2013-03-30 15:44:00,57.7,22.1,30.12,North,6,8.0,11.0,25,0.00,,,0.00,Wunderground PWS Mod,2013-03-30 19:44:00,
2013-03-30 15:54:00,58.4,21.7,30.12,WNW,291,1.0,11.0,24,0.00,,,0.00,Wunderground PWS Mod,2013-03-30 19:54:00,
2013-03-30 16:04:00,58.1,21.4,30.12,West,275,6.0,15.0,24,0.00,,,0.00,Wunderground PWS Mod,2013-03-30 20:04:00,
2013-03-30 16:06:00,58.3,21.6,30.11,NNE,23,6.0,15.0,24,0.00,,,0.00,Wunderground PWS Mod,2013-03-30 20:06:00,
2013-03-30 16:08:00,58.3,21.6,30.11,NNE,23,6.0,15.0,24,0.00,,,0.00,Wunderground PWS Mod,2013-03-30 20:08:00,
2013-03-30 16:10:00,58.3,21.6,30.11,NNE,23,6.0,15.0,24,0.00,,,0.00,Wunderground PWS Mod,2013-03-30 20:10:00,
2013-03-30 16:12:00,58.3,21.6,30.11,NNE,23,6.0,15.0,24,0.00,,,0.00,Wunderground PWS Mod,2013-03-30 20:12:00,
2013-03-30 16:14:00,58.2,21.5,30.13,NNE,17,4.0,15.0,24,0.00,,,0.00,Wunderground PWS Mod,2013-03-30 20:14:00,
2013-03-30 16:24:00,58.5,21.8,30.13,North,8,7.0,15.0,24,0.00,,,0.00,Wunderground PWS Mod,2013-03-30 20:24:00,
2013-03-30 16:34:00,58.3,19.6,30.13,WNW,285,6.0,15.0,22,0.00,,,0.00,Wunderground PWS Mod,2013-03-30 20:34:00,
2013-03-30 16:36:00,58.3,20.6,30.12,NNE,23,5.0,14.0,23,0.00,,,0.00,Wunderground PWS Mod,2013-03-30 20:36:00,
2013-03-30 16:44:00,58.5,19.7,30.13,NNW,333,2.0,15.0,22,0.00,,,0.00,Wunderground PWS Mod,2013-03-30 20:44:00,
2013-03-30 16:54:00,58.8,21.0,30.13,NNW,347,5.0,15.0,23,0.00,,,0.00,Wunderground PWS Mod,2013-03-30 20:54:00,
2013-03-30 17:04:00,58.8,18.9,30.12,NW,307,8.0,11.0,21,0.00,,,0.00,Wunderground PWS Mod,2013-03-30 21:04:00,
2013-03-30 17:06:00,58.5,19.7,30.12,North,0,5.0,11.0,22,0.00,,,0.00,Wunderground PWS Mod,2013-03-30 21:06:00,
2013-03-30 17:08:00,58.5,19.7,30.12,North,0,5.0,11.0,22,0.00,,,0.00,Wunderground PWS Mod,2013-03-30 21:08:00,
2013-03-30 17:10:00,58.5,19.7,30.12,North,0,5.0,11.0,22,0.00,,,0.00,Wunderground PWS Mod,2013-03-30 21:10:00,
2013-03-30 17:12:00,58.5,19.7,30.12,North,0,5.0,11.0,22,0.00,,,0.00,Wunderground PWS Mod,2013-03-30 21:12:00,
2013-03-30 17:14:00,58.5,18.6,30.12,WNW,287,3.0,11.0,21,0.00,,,0.00,Wunderground PWS Mod,2013-03-30 21:14:00,
2013-03-30 17:24:00,58.6,19.8,30.12,SSW,209,1.0,11.0,22,0.00,,,0.00,Wunderground PWS Mod,2013-03-30 21:24:00,
2013-03-30 17:34:00,58.8,18.9,30.12,NW,312,5.0,14.0,21,0.00,,,0.00,Wunderground PWS Mod,2013-03-30 21:34:00,
2013-03-30 17:38:00,58.7,19.9,30.10,WNW,293,5.0,14.0,22,0.00,,,0.00,Wunderground PWS Mod,2013-03-30 21:38:00,
2013-03-30 17:44:00,59.7,19.6,30.12,NNE,21,8.0,14.0,21,0.00,,,0.00,Wunderground PWS Mod,2013-03-30 21:44:00,
2013-03-30 17:54:00,59.4,19.4,30.12,North,353,3.0,14.0,21,0.00,,,0.00,Wunderground PWS Mod,2013-03-30 21:54:00,
2013-03-30 18:04:00,58.6,18.7,30.12,WNW,288,3.0,12.0,21,0.00,,,0.00,Wunderground PWS Mod,2013-03-30 22:04:00,
2013-03-30 18:06:00,59.2,19.2,30.11,NNW,338,4.0,12.0,21,0.00,,,0.00,Wunderground PWS Mod,2013-03-30 22:06:00,
2013-03-30 18:08:00,59.2,19.2,30.11,NNW,338,4.0,12.0,21,0.00,,,0.00,Wunderground PWS Mod,2013-03-30 22:08:00,
2013-03-30 18:10:00,59.2,19.2,30.11,NNW,338,4.0,12.0,21,0.00,,,0.00,Wunderground PWS Mod,2013-03-30 22:10:00,
2013-03-30 18:12:00,59.2,19.2,30.11,NNW,338,4.0,12.0,21,0.00,,,0.00,Wunderground PWS Mod,2013-03-30 22:12:00,
2013-03-30 18:14:00,58.3,18.5,30.12,WNW,292,5.0,12.0,21,0.00,,,0.00,Wunderground PWS Mod,2013-03-30 22:14:00,
2013-03-30 18:24:00,58.5,18.6,30.13,WSW,255,1.0,12.0,21,0.00,,,0.00,Wunderground PWS Mod,2013-03-30 22:24:00,
2013-03-30 18:34:00,58.2,17.3,30.12,WNW,291,6.0,12.0,20,0.00,,,0.00,Wunderground PWS Mod,2013-03-30 22:34:00,
2013-03-30 18:40:00,58.5,17.5,30.11,WNW,293,4.0,11.0,20,0.00,,,0.00,Wunderground PWS Mod,2013-03-30 22:40:00,
2013-03-30 18:42:00,58.5,17.5,30.11,WNW,293,4.0,11.0,20,0.00,,,0.00,Wunderground PWS Mod,2013-03-30 22:42:00,
2013-03-30 18:44:00,57.9,18.1,30.12,WSW,254,3.0,12.0,21,0.00,,,0.00,Wunderground PWS Mod,2013-03-30 22:44:00,
2013-03-30 18:54:00,57.7,18.0,30.12,WNW,286,1.0,12.0,21,0.00,,,0.00,Wunderground PWS Mod,2013-03-30 22:54:00,
2013-03-30 19:04:00,57.0,23.3,30.13,NE,48,2.0,7.0,27,0.00,,,0.00,Wunderground PWS Mod,2013-03-30 23:04:00,
2013-03-30 19:06:00,57.9,24.1,30.11,WNW,293,3.0,7.0,27,0.00,,,0.00,Wunderground PWS Mod,2013-03-30 23:06:00,
2013-03-30 19:08:00,57.9,24.1,30.11,WNW,293,3.0,7.0,27,0.00,,,0.00,Wunderground PWS Mod,2013-03-30 23:08:00,
2013-03-30 19:10:00,57.9,24.1,30.11,WNW,293,3.0,7.0,27,0.00,,,0.00,Wunderground PWS Mod,2013-03-30 23:10:00,
2013-03-30 19:12:00,57.9,24.1,30.11,WNW,293,3.0,7.0,27,0.00,,,0.00,Wunderground PWS Mod,2013-03-30 23:12:00,
2013-03-30 19:14:00,55.7,23.1,30.13,SE,127,5.0,7.0,28,0.00,,,0.00,Wunderground PWS Mod,2013-03-30 23:14:00,
2013-03-30 19:24:00,54.7,23.8,30.13,SE,140,2.0,7.0,30,0.00,,,0.00,Wunderground PWS Mod,2013-03-30 23:24:00,
2013-03-30 19:34:00,54.3,25.0,30.13,ESE,123,3.0,8.0,32,0.00,,,0.00,Wunderground PWS Mod,2013-03-30 23:34:00,
2013-03-30 19:36:00,55.4,25.2,30.12,SE,135,3.0,8.0,31,0.00,,,0.00,Wunderground PWS Mod,2013-03-30 23:36:00,
2013-03-30 19:44:00,53.8,25.3,30.13,ESE,114,1.0,8.0,33,0.00,,,0.00,Wunderground PWS Mod,2013-03-30 23:44:00,
2013-03-30 19:54:00,53.1,24.7,30.13,SE,139,2.0,8.0,33,0.00,,,0.00,Wunderground PWS Mod,2013-03-30 23:54:00,
2013-03-30 20:04:00,52.0,25.2,30.13,SE,140,3.0,5.0,35,0.00,,,0.00,Wunderground PWS Mod,2013-03-31 00:04:00,
2013-03-30 20:06:00,53.5,25.8,30.12,ESE,113,2.0,5.0,34,0.00,,,0.00,Wunderground PWS Mod,2013-03-31 00:06:00,
2013-03-30 20:08:00,53.5,25.8,30.12,ESE,113,2.0,5.0,34,0.00,,,0.00,Wunderground PWS Mod,2013-03-31 00:08:00,
2013-03-30 20:10:00,53.5,25.8,30.12,ESE,113,2.0,5.0,34,0.00,,,0.00,Wunderground PWS Mod,2013-03-31 00:10:00,
2013-03-30 20:12:00,53.5,25.8,30.12,ESE,113,2.0,5.0,34,0.00,,,0.00,Wunderground PWS Mod,2013-03-31 00:12:00,
2013-03-30 20:14:00,51.1,25.7,30.14,SE,140,2.0,5.0,37,0.00,,,0.00,Wunderground PWS Mod,2013-03-31 00:14:00,
2013-03-30 20:24:00,50.6,25.3,30.14,SE,143,2.0,5.0,37,0.00,,,0.00,Wunderground PWS Mod,2013-03-31 00:24:00,
2013-03-30 20:34:00,50.3,25.6,30.14,SE,143,1.0,5.0,38,0.00,,,0.00,Wunderground PWS Mod,2013-03-31 00:34:00,
2013-03-30 20:40:00,51.0,26.3,30.13,SE,135,2.0,4.0,38,0.00,,,0.00,Wunderground PWS Mod,2013-03-31 00:40:00,
2013-03-30 20:42:00,51.0,26.3,30.13,SE,135,2.0,4.0,38,0.00,,,0.00,Wunderground PWS Mod,2013-03-31 00:42:00,
2013-03-30 20:44:00,49.8,25.8,30.14,SE,143,2.0,5.0,39,0.00,,,0.00,Wunderground PWS Mod,2013-03-31 00:44:00,
2013-03-30 20:54:00,49.6,26.2,30.15,SE,143,2.0,5.0,40,0.00,,,0.00,Wunderground PWS Mod,2013-03-31 00:54:00,
2013-03-30 21:04:00,49.6,26.2,30.15,SE,143,2.0,3.0,40,0.00,,,0.00,Wunderground PWS Mod,2013-03-31 01:04:00,
2013-03-30 21:06:00,49.8,25.8,30.14,SE,135,2.0,3.0,39,0.00,,,0.00,Wunderground PWS Mod,2013-03-31 01:06:00,
2013-03-30 21:08:00,49.8,25.8,30.14,SE,135,2.0,3.0,39,0.00,,,0.00,Wunderground PWS Mod,2013-03-31 01:08:00,
2013-03-30 21:10:00,49.8,25.8,30.14,SE,135,2.0,3.0,39,0.00,,,0.00,Wunderground PWS Mod,2013-03-31 01:10:00,
2013-03-30 21:12:00,49.8,25.8,30.14,SE,135,2.0,3.0,39,0.00,,,0.00,Wunderground PWS Mod,2013-03-31 01:12:00,
2013-03-30 21:14:00,49.3,26.0,30.15,SE,143,1.0,3.0,40,0.00,,,0.00,Wunderground PWS Mod,2013-03-31 01:14:00,
2013-03-30 21:24:00,48.8,26.1,30.15,SE,143,1.0,3.0,41,0.00,,,0.00,Wunderground PWS Mod,2013-03-31 01:24:00,
2013-03-30 21:34:00,48.5,25.8,30.15,SE,143,2.0,3.0,41,0.00,,,0.00,Wunderground PWS Mod,2013-03-31 01:34:00,
2013-03-30 21:38:00,49.1,26.4,30.14,SE,135,1.0,3.0,41,0.00,,,0.00,Wunderground PWS Mod,2013-03-31 01:38:00,
2013-03-30 21:44:00,48.0,26.0,30.15,SE,143,3.0,3.0,42,0.00,,,0.00,Wunderground PWS Mod,2013-03-31 01:44:00,
2013-03-30 21:54:00,47.5,26.1,30.16,SE,143,2.0,3.0,43,0.00,,,0.00,Wunderground PWS Mod,2013-03-31 01:54:00,
2013-03-30 22:04:00,46.9,26.1,30.16,SSE,155,3.0,4.0,44,0.00,,,0.00,Wunderground PWS Mod,2013-03-31 02:04:00,
2013-03-30 22:06:00,47.9,27.0,30.14,SE,135,2.0,4.0,44,0.00,,,0.00,Wunderground PWS Mod,2013-03-31 02:06:00,
2013-03-30 22:08:00,47.9,27.0,30.14,SE,135,2.0,4.0,44,0.00,,,0.00,Wunderground PWS Mod,2013-03-31 02:08:00,
2013-03-30 22:10:00,47.9,27.0,30.14,SE,135,2.0,4.0,44,0.00,,,0.00,Wunderground PWS Mod,2013-03-31 02:10:00,
2013-03-30 22:12:00,47.9,27.0,30.14,SE,135,2.0,4.0,44,0.00,,,0.00,Wunderground PWS Mod,2013-03-31 02:12:00,
2013-03-30 22:14:00,46.8,26.0,30.15,SSE,156,4.0,4.0,44,0.00,,,0.00,Wunderground PWS Mod,2013-03-31 02:14:00,
2013-03-30 22:24:00,46.9,25.5,30.16,SSE,156,3.0,4.0,43,0.00,,,0.00,Wunderground PWS Mod,2013-03-31 02:24:00,
2013-03-30 22:34:00,46.7,25.9,30.15,SSE,164,2.0,6.0,44,0.00,,,0.00,Wunderground PWS Mod,2013-03-31 02:34:00,
2013-03-30 22:36:00,46.9,26.1,30.14,SSE,158,3.0,6.0,44,0.00,,,0.00,Wunderground PWS Mod,2013-03-31 02:36:00,
2013-03-30 22:44:00,46.6,25.8,30.15,SSE,164,2.0,6.0,44,0.00,,,0.00,Wunderground PWS Mod,2013-03-31 02:44:00,
2013-03-30 22:54:00,46.4,26.2,30.15,SSE,164,2.0,6.0,45,0.00,,,0.00,Wunderground PWS Mod,2013-03-31 02:54:00,
2013-03-30 23:04:00,46.4,26.7,30.15,SSE,164,2.0,4.0,46,0.00,,,0.00,Wunderground PWS Mod,2013-03-31 03:04:00,
2013-03-30 23:06:00,46.5,26.8,30.14,SSE,158,2.0,4.0,46,0.00,,,0.00,Wunderground PWS Mod,2013-03-31 03:06:00,
2013-03-30 23:14:00,46.1,26.4,30.14,SSE,164,2.0,4.0,46,0.00,,,0.00,Wunderground PWS Mod,2013-03-31 03:14:00,
2013-03-30 23:24:00,45.7,26.6,30.14,SSE,164,2.0,4.0,47,0.00,,,0.00,Wunderground PWS Mod,2013-03-31 03:24:00,
2013-03-30 23:34:00,45.2,26.7,30.14,SSE,164,2.0,4.0,48,0.00,,,0.00,Wunderground PWS Mod,2013-03-31 03:34:00,
2013-03-30 23:36:00,45.9,27.3,30.13,SSE,158,2.0,4.0,48,0.00,,,0.00,Wunderground PWS Mod,2013-03-31 03:36:00,
2013-03-30 23:44:00,44.7,26.7,30.14,SSE,164,2.0,4.0,49,0.00,,,0.00,Wunderground PWS Mod,2013-03-31 03:44:00,
2013-03-30 23:54:00,44.5,27.0,30.14,SSE,164,2.0,4.0,50,0.00,,,0.00,Wunderground PWS Mod,2013-03-31 03:54:00,